| time (UTC) | temp C | wind direction | speed KPH | gust KPH | rain 1hr cm | rain 24hr cm | rain mn cm | humidity % | barometer mb |
| 20260902194701 | 35 | 0 | 0.0 | 6.4 | 0.00 | 0.00 | 0.00 | 46 | 1015.7 |
| 20260902175258 | 33 | 0 | 0.0 | 8.0 | 0.00 | 0.00 | 0.00 | 52 | 1016.6 |
| 20260902174258 | 34 | 0 | 0.0 | 12.9 | 0.00 | 0.00 | 0.00 | 50 | 1016.7 |
| 20260902170026 | 33 | 0 | 0.0 | 9.7 | 0.00 | 0.00 | 0.00 | 53 | 1017.1 |
| 20260902164526 | 33 | 0 | 0.0 | 0.0 | 0.00 | 0.00 | 0.00 | 53 | 1017.1 |
| 20260902163026 | 33 | 0 | 0.0 | 0.0 | 0.00 | 0.00 | 0.00 | 55 | 1017.2 |
| 20260902161101 | 33 | 0 | 0.0 | 1.6 | 0.00 | 0.00 | 0.00 | 56 | 1017.3 |
| 20260902152101 | 31 | 0 | 0.0 | 4.8 | 0.00 | 0.00 | 0.00 | 59 | 1017.5 |
| 20260902140220 | 28 | 0 | 0.0 | 9.7 | 0.00 | 0.00 | 0.00 | 68 | 1017.5 |
| 20260902135721 | 28 | 0 | 0.0 | 0.0 | 0.00 | 0.00 | 0.00 | 71 | 1017.6 |
| 20260902134144 | 28 | 287 | 1.6 | 6.4 | 0.00 | 0.00 | 0.00 | 71 | 1017.6 |
| 20260902132644 | 28 | 0 | 0.0 | 1.6 | 0.00 | 0.00 | 0.00 | 73 | 1017.7 |
| 20260902131144 | 27 | 0 | 0.0 | 6.4 | 0.00 | 0.00 | 0.00 | 75 | 1017.6 |
| 20260902123433 | 25 | 0 | 0.0 | 0.0 | 0.00 | 0.00 | 0.00 | 84 | 1017.5 |
| 20260902121933 | 23 | 0 | 0.0 | 0.0 | 0.00 | 0.00 | 0.00 | 88 | 1017.6 |
| 20260902121433 | 23 | 0 | 0.0 | 0.0 | 0.00 | 0.00 | 0.00 | 90 | 1017.5 |
| 20260902120433 | -17 | 0.0 | 0.0 | 0.00 | 0.00 | 0.00 | 1017.3 | ||
| 20260902112933 | -17 | 0.0 | 0.0 | 0.00 | 0.00 | 0.00 | 1017.0 | ||
| 20260902112433 | -17 | 0.0 | 0.0 | 0.00 | 0.00 | 0.00 | 1017.0 | ||
| 20260902105433 | -17 | 0.0 | 0.0 | 0.00 | 0.00 | 0.00 | 1016.8 | ||
| 20260902103933 | -17 | 0.0 | 0.0 | 0.00 | 0.00 | 0.00 | 1016.8 | ||
| 20260902094933 | 21 | 0 | 0.0 | 0.0 | 0.00 | 0.00 | 0.00 | 95 | 1016.7 |
| 20260902094433 | 21 | 0 | 0.0 | 0.0 | 0.00 | 0.00 | 0.00 | 95 | 1016.9 |
| 20260902093933 | 21 | 0 | 0.0 | 0.0 | 0.00 | 0.00 | 0.00 | 94 | 1016.7 |
| 20260902081601 | 21 | 0 | 0.0 | 0.0 | 0.00 | 0.00 | 0.00 | 93 | 1016.2 |
| 20260902080100 | 22 | 0 | 0.0 | 0.0 | 0.00 | 0.00 | 0.00 | 91 | 1016.1 |
| 20260902075106 | 22 | 0 | 0.0 | 0.0 | 0.00 | 0.00 | 0.00 | 92 | 1016.1 |